Location: Observatoire
(46.1952°N, 5.3391°E)
Time: 02:52:45
(UTC+02:00)

ITAMSAT 1 - Pass Details

Date: 25 April 2024
Orbit: 782 x 796 km, 98.8° (Epoch: 24 May)

Event Time Altitude Azimuth Distance (km) Brightness Sun altitude
Exits shadow 22:47:26 - 199° (SSW) 2,464 10.0 -19.2°
Reaches altitude 10° 22:47:44 10° 201° (SSW) 2,359 9.9 -19.2°
Maximum altitude 22:52:23 33° 264° (W) 1,327 9.1 -19.8°
Drops below altitude 10° 22:57:05 10° 327° (NNW) 2,373 11.3 -20.3°
Sets 22:59:39 0° 338° (NNW) 3,307 12.2 -20.6°
